| time (UTC) | temp F | wind direction | speed MPH | gust MPH | rain 1hr in | rain 24hr in | rain mn in | humidity % | barometer mb |
| 20260502221516 | 43 | 315 | 0.0 | 1.0 | 0.00 | 0.00 | 0.00 | 90 | 1020.7 |
| 20260502221016 | 43 | 345 | 0.0 | 0.0 | 0.00 | 0.00 | 0.00 | 90 | 1020.7 |
| 20260502220516 | 43 | 337 | 0.0 | 0.0 | 0.00 | 0.00 | 0.00 | 91 | 1020.7 |
| 20260502220016 | 43 | 330 | 0.0 | 0.0 | 0.00 | 0.00 | 0.00 | 90 | 1021.0 |
| 20260502215516 | 44 | 316 | 1.0 | 1.0 | 0.00 | 0.00 | 0.00 | 90 | 1021.0 |
| 20260502215016 | 44 | 333 | 1.0 | 1.0 | 0.00 | 0.00 | 0.00 | 90 | 1021.0 |
| 20260502214516 | 44 | 358 | 1.0 | 1.0 | 0.00 | 0.00 | 0.00 | 90 | 1021.0 |
| 20260502214016 | 44 | 335 | 0.0 | 0.0 | 0.00 | 0.00 | 0.00 | 91 | 1021.0 |
| 20260502213516 | 44 | 329 | 0.0 | 0.0 | 0.00 | 0.00 | 0.00 | 91 | 1021.0 |
| 20260502213016 | 44 | 332 | 0.0 | 0.0 | 0.00 | 0.00 | 0.00 | 93 | 1021.0 |
| 20260502212516 | 44 | 341 | 0.0 | 0.0 | 0.00 | 0.00 | 0.00 | 92 | 1021.0 |
| 20260502212016 | 45 | 341 | 0.0 | 0.0 | 0.00 | 0.00 | 0.00 | 91 | 1021.0 |
| 20260502211516 | 45 | 337 | 0.0 | 0.0 | 0.00 | 0.00 | 0.00 | 92 | 1021.0 |
| 20260502211016 | 45 | 339 | 0.0 | 0.0 | 0.00 | 0.00 | 0.00 | 92 | 1021.0 |
| 20260502210516 | 45 | 338 | 0.0 | 0.0 | 0.00 | 0.00 | 0.00 | 92 | 1021.0 |
| 20260502210016 | 45 | 337 | 0.0 | 0.0 | 0.00 | 0.00 | 0.00 | 87 | 1021.0 |
| 20260502205516 | 45 | 339 | 0.0 | 0.0 | 0.00 | 0.00 | 0.00 | 89 | 1021.0 |
| 20260502205016 | 46 | 339 | 0.0 | 0.0 | 0.00 | 0.00 | 0.00 | 92 | 1021.7 |
| 20260502204516 | 45 | 334 | 0.0 | 0.0 | 0.00 | 0.00 | 0.00 | 91 | 1021.7 |
| 20260502204016 | 46 | 335 | 0.0 | 0.0 | 0.00 | 0.00 | 0.00 | 91 | 1021.7 |
| 20260502203516 | 46 | 335 | 0.0 | 0.0 | 0.00 | 0.00 | 0.00 | 89 | 1021.7 |
| 20260502203016 | 47 | 335 | 0.0 | 0.0 | 0.00 | 0.00 | 0.00 | 85 | 1021.7 |
| 20260502202516 | 47 | 335 | 0.0 | 0.0 | 0.00 | 0.00 | 0.00 | 85 | 1021.7 |
| 20260502202016 | 47 | 330 | 0.0 | 0.0 | 0.00 | 0.00 | 0.00 | 86 | 1021.7 |
| 20260502201516 | 47 | 330 | 0.0 | 0.0 | 0.00 | 0.00 | 0.00 | 78 | 1021.7 |
| 20260502201016 | 48 | 326 | 2.0 | 2.0 | 0.00 | 0.00 | 0.00 | 81 | 1021.7 |
| 20260502200516 | 49 | 342 | 0.0 | 0.0 | 0.00 | 0.00 | 0.00 | 83 | 1021.7 |
| 20260502200016 | 49 | 347 | 0.0 | 0.0 | 0.00 | 0.00 | 0.00 | 80 | 1021.7 |
| 20260502195516 | 49 | 335 | 0.0 | 0.0 | 0.00 | 0.00 | 0.00 | 82 | 1021.7 |
| 20260502195016 | 49 | 336 | 0.0 | 0.0 | 0.00 | 0.00 | 0.00 | 82 | 1021.7 |
| 20260502194516 | 49 | 342 | 0.0 | 0.0 | 0.00 | 0.00 | 0.00 | 79 | 1021.7 |
| 20260502194016 | 49 | 337 | 0.0 | 0.0 | 0.00 | 0.00 | 0.00 | 76 | 1021.7 |
| 20260502193516 | 50 | 337 | 0.0 | 0.0 | 0.00 | 0.00 | 0.00 | 77 | 1021.7 |
| 20260502193016 | 49 | 329 | 0.0 | 0.0 | 0.00 | 0.00 | 0.00 | 76 | 1021.7 |
| 20260502192516 | 50 | 322 | 0.0 | 0.0 | 0.00 | 0.00 | 0.00 | 78 | 1021.7 |
| 20260502192016 | 51 | 318 | 0.0 | 1.0 | 0.00 | 0.00 | 0.00 | 77 | 1021.7 |
| 20260502191516 | 51 | 340 | 0.0 | 0.0 | 0.00 | 0.00 | 0.00 | 70 | 1021.7 |
| 20260502191016 | 52 | 340 | 0.0 | 0.0 | 0.00 | 0.00 | 0.00 | 71 | 1021.0 |
| 20260502190516 | 52 | 338 | 0.0 | 0.0 | 0.00 | 0.00 | 0.00 | 69 | 1021.0 |
| 20260502190016 | 52 | 337 | 0.0 | 0.0 | 0.00 | 0.00 | 0.00 | 76 | 1021.0 |
| 20260502185516 | 53 | 340 | 0.0 | 0.0 | 0.00 | 0.00 | 0.00 | 70 | 1021.0 |
| 20260502185016 | 53 | 340 | 0.0 | 1.0 | 0.00 | 0.00 | 0.00 | 69 | 1021.0 |
| 20260502184516 | 54 | 340 | 0.0 | 0.0 | 0.00 | 0.00 | 0.00 | 68 | 1021.0 |
| 20260502184016 | 55 | 340 | 0.0 | 0.0 | 0.00 | 0.00 | 0.00 | 66 | 1021.0 |
| 20260502183516 | 55 | 339 | 0.0 | 0.0 | 0.00 | 0.00 | 0.00 | 63 | 1021.0 |
| 20260502183016 | 56 | 326 | 0.0 | 0.0 | 0.00 | 0.00 | 0.00 | 62 | 1021.0 |
| 20260502182516 | 57 | 324 | 0.0 | 0.0 | 0.00 | 0.00 | 0.00 | 67 | 1021.0 |
| 20260502182016 | 58 | 345 | 1.0 | 2.0 | 0.00 | 0.00 | 0.00 | 65 | 1021.0 |
| 20260502181516 | 58 | 348 | 1.0 | 1.0 | 0.00 | 0.00 | 0.00 | 58 | 1021.0 |
| 20260502181016 | 60 | 349 | 1.0 | 1.0 | 0.00 | 0.00 | 0.00 | 57 | 1021.0 |
| 20260502180516 | 60 | 346 | 1.0 | 1.0 | 0.00 | 0.00 | 0.00 | 54 | 1021.0 |
| 20260502170516 | 71 | 68 | 6.0 | 8.0 | 0.00 | 0.00 | 0.00 | 34 | 1021.7 |
| 20260502164016 | 72 | 79 | 3.0 | 5.0 | 0.00 | 0.00 | 0.00 | 30 | 1021.7 |
| 20260502163516 | 73 | 344 | 1.0 | 4.0 | 0.00 | 0.00 | 0.00 | 29 | 1021.7 |
| 20260502163016 | 73 | 51 | 3.0 | 5.0 | 0.00 | 0.00 | 0.00 | 29 | 1021.7 |
| 20260502162516 | 73 | 355 | 1.0 | 1.0 | 0.00 | 0.00 | 0.00 | 29 | 1021.7 |
| 20260502162016 | 73 | 66 | 1.0 | 2.0 | 0.00 | 0.00 | 0.00 | 28 | 1021.7 |
| 20260502161516 | 73 | 86 | 3.0 | 3.0 | 0.00 | 0.00 | 0.00 | 29 | 1021.7 |
| 20260502161016 | 73 | 38 | 3.0 | 4.0 | 0.00 | 0.00 | 0.00 | 28 | 1021.7 |
| 20260502160516 | 73 | 70 | 8.0 | 11.0 | 0.00 | 0.00 | 0.00 | 28 | 1021.7 |
| 20260502152016 | 74 | 114 | 8.0 | 9.0 | 0.00 | 0.00 | 0.00 | 27 | 1022.4 |
| 20260502151516 | 74 | 78 | 6.0 | 8.0 | 0.00 | 0.00 | 0.00 | 26 | 1022.4 |
| 20260502151016 | 75 | 36 | 3.0 | 5.0 | 0.00 | 0.00 | 0.00 | 26 | 1022.4 |
| 20260502150516 | 75 | 352 | 3.0 | 7.0 | 0.00 | 0.00 | 0.00 | 26 | 1022.4 |
| 20260502130516 | 76 | 258 | 4.0 | 5.0 | 0.00 | 0.00 | 0.00 | 28 | 1022.7 |
| 20260502123516 | 75 | 349 | 9.0 | 15.0 | 0.00 | 0.00 | 0.00 | 28 | 1023.4 |
| 20260502123016 | 76 | 46 | 5.0 | 8.0 | 0.00 | 0.00 | 0.00 | 28 | 1023.4 |
| 20260502122516 | 74 | 323 | 4.0 | 4.0 | 0.00 | 0.00 | 0.00 | 28 | 1023.7 |
| 20260502122016 | 74 | 0 | 4.0 | 8.0 | 0.00 | 0.00 | 0.00 | 28 | 1023.7 |
| 20260502121516 | 75 | 72 | 11.0 | 17.0 | 0.00 | 0.00 | 0.00 | 27 | 1023.7 |
| 20260502121016 | 76 | 21 | 4.0 | 9.0 | 0.00 | 0.00 | 0.00 | 28 | 1023.7 |
| 20260502120516 | 75 | 178 | 4.0 | 9.0 | 0.00 | 0.00 | 0.00 | 27 | 1023.7 |
| 20260502115516 | 75 | 357 | 1.0 | 6.0 | 0.00 | 0.00 | 0.00 | 30 | 1023.7 |
| 20260502115016 | 75 | 327 | 6.0 | 6.0 | 0.00 | 0.00 | 0.00 | 29 | 1024.4 |
| 20260502114516 | 75 | 293 | 3.0 | 6.0 | 0.00 | 0.00 | 0.00 | 29 | 1024.4 |
| 20260502114016 | 75 | 0 | 5.0 | 7.0 | 0.00 | 0.00 | 0.00 | 26 | 1024.4 |
| 20260502113516 | 75 | 337 | 4.0 | 5.0 | 0.00 | 0.00 | 0.00 | 28 | 1024.4 |
| 20260502113016 | 74 | 0 | 6.0 | 11.0 | 0.00 | 0.00 | 0.00 | 27 | 1024.4 |
| 20260502112516 | 73 | 143 | 8.0 | 12.0 | 0.00 | 0.00 | 0.00 | 27 | 1024.4 |
| 20260502112016 | 74 | 48 | 7.0 | 10.0 | 0.00 | 0.00 | 0.00 | 27 | 1024.4 |
| 20260502111516 | 74 | 157 | 4.0 | 6.0 | 0.00 | 0.00 | 0.00 | 28 | 1024.4 |
| 20260502111016 | 73 | 138 | 6.0 | 9.0 | 0.00 | 0.00 | 0.00 | 28 | 1024.7 |
| 20260502110516 | 73 | 158 | 11.0 | 13.0 | 0.00 | 0.00 | 0.00 | 27 | 1024.7 |
| 20260502110016 | 74 | 209 | 8.0 | 10.0 | 0.00 | 0.00 | 0.00 | 29 | 1024.7 |
| 20260502105516 | 73 | 97 | 5.0 | 10.0 | 0.00 | 0.00 | 0.00 | 28 | 1024.7 |
| 20260502105016 | 73 | 79 | 3.0 | 3.0 | 0.00 | 0.00 | 0.00 | 28 | 1024.7 |
| 20260502104516 | 73 | 67 | 7.0 | 8.0 | 0.00 | 0.00 | 0.00 | 29 | 1024.7 |
| 20260502104016 | 73 | 31 | 6.0 | 6.0 | 0.00 | 0.00 | 0.00 | 29 | 1024.7 |
| 20260502103516 | 73 | 123 | 4.0 | 6.0 | 0.00 | 0.00 | 0.00 | 29 | 1024.7 |
| 20260502103016 | 73 | 43 | 6.0 | 8.0 | 0.00 | 0.00 | 0.00 | 27 | 1024.7 |
| 20260502102516 | 72 | 40 | 13.0 | 16.0 | 0.00 | 0.00 | 0.00 | 28 | 1024.7 |
| 20260502102016 | 72 | 357 | 4.0 | 6.0 | 0.00 | 0.00 | 0.00 | 30 | 1024.7 |
| 20260502101516 | 71 | 209 | 10.0 | 11.0 | 0.00 | 0.00 | 0.00 | 29 | 1024.7 |
| 20260502101016 | 72 | 70 | 6.0 | 10.0 | 0.00 | 0.00 | 0.00 | 28 | 1025.1 |
| 20260502100516 | 73 | 155 | 6.0 | 7.0 | 0.00 | 0.00 | 0.00 | 27 | 1025.1 |
| 20260502091516 | 71 | 12 | 5.0 | 6.0 | 0.00 | 0.00 | 0.00 | 34 | 1025.4 |
| 20260502091016 | 71 | 342 | 4.0 | 6.0 | 0.00 | 0.00 | 0.00 | 34 | 1025.4 |
| 20260502090516 | 71 | 29 | 3.0 | 6.0 | 0.00 | 0.00 | 0.00 | 34 | 1025.4 |
| 20260502071516 | 69 | 341 | 1.0 | 6.0 | 0.00 | 0.00 | 0.00 | 40 | 1025.7 |
| 20260502071016 | 69 | 18 | 6.0 | 6.0 | 0.00 | 0.00 | 0.00 | 39 | 1025.4 |
| 20260502070516 | 69 | 26 | 4.0 | 6.0 | 0.00 | 0.00 | 0.00 | 40 | 1025.4 |
| 20260502070016 | 69 | 128 | 4.0 | 6.0 | 0.00 | 0.00 | 0.00 | 39 | 1025.7 |
| 20260502065516 | 69 | 300 | 0.0 | 1.0 | 0.00 | 0.00 | 0.00 | 43 | 1025.7 |
| 20260502065016 | 68 | 315 | 1.0 | 1.0 | 0.00 | 0.00 | 0.00 | 43 | 1025.7 |
| 20260502064516 | 67 | 271 | 2.0 | 4.0 | 0.00 | 0.00 | 0.00 | 41 | 1025.7 |
| 20260502064016 | 65 | 351 | 2.0 | 2.0 | 0.00 | 0.00 | 0.00 | 42 | 1025.7 |
| 20260502063516 | 64 | 326 | 3.0 | 4.0 | 0.00 | 0.00 | 0.00 | 43 | 1025.7 |
| 20260502063016 | 64 | 56 | 1.0 | 2.0 | 0.00 | 0.00 | 0.00 | 43 | 1025.7 |
| 20260502062516 | 63 | 337 | 3.0 | 3.0 | 0.00 | 0.00 | 0.00 | 46 | 1025.7 |
| 20260502062016 | 64 | 332 | 0.0 | 1.0 | 0.00 | 0.00 | 0.00 | 47 | 1025.7 |
| 20260502061516 | 63 | 316 | 1.0 | 1.0 | 0.00 | 0.00 | 0.00 | 48 | 1025.7 |
| 20260502061016 | 61 | 337 | 2.0 | 2.0 | 0.00 | 0.00 | 0.00 | 50 | 1025.7 |
| 20260502060516 | 60 | 328 | 1.0 | 1.0 | 0.00 | 0.00 | 0.00 | 51 | 1025.7 |
| 20260502060016 | 60 | 334 | 0.0 | 0.0 | 0.00 | 0.00 | 0.00 | 52 | 1025.7 |
| 20260502055516 | 59 | 325 | 0.0 | 0.0 | 0.00 | 0.00 | 0.00 | 58 | 1025.7 |
| 20260502055016 | 58 | 327 | 0.0 | 0.0 | 0.00 | 0.00 | 0.00 | 58 | 1025.7 |
| 20260502054516 | 56 | 328 | 0.0 | 1.0 | 0.00 | 0.00 | 0.00 | 61 | 1025.7 |
| 20260502054016 | 55 | 329 | 0.0 | 0.0 | 0.00 | 0.00 | 0.00 | 64 | 1025.7 |
| 20260502053516 | 53 | 334 | 0.0 | 0.0 | 0.00 | 0.00 | 0.00 | 65 | 1025.7 |
| 20260502053016 | 53 | 335 | 1.0 | 1.0 | 0.00 | 0.00 | 0.00 | 65 | 1025.7 |
| 20260502052516 | 51 | 332 | 0.0 | 0.0 | 0.00 | 0.00 | 0.00 | 68 | 1025.7 |
| 20260502052016 | 50 | 335 | 0.0 | 1.0 | 0.00 | 0.00 | 0.00 | 70 | 1025.7 |
| 20260502051516 | 49 | 335 | 0.0 | 0.0 | 0.00 | 0.00 | 0.00 | 69 | 1025.7 |
| 20260502051016 | 47 | 334 | 0.0 | 0.0 | 0.00 | 0.00 | 0.00 | 74 | 1025.7 |
| 20260502050516 | 46 | 335 | 0.0 | 0.0 | 0.00 | 0.00 | 0.00 | 76 | 1025.7 |
| 20260502050016 | 44 | 334 | 0.0 | 0.0 | 0.00 | 0.00 | 0.00 | 78 | 1025.7 |
| 20260502045516 | 44 | 334 | 0.0 | 0.0 | 0.00 | 0.00 | 0.00 | 78 | 1025.7 |
| 20260502045016 | 43 | 334 | 1.0 | 1.0 | 0.00 | 0.00 | 0.00 | 77 | 1025.4 |
| 20260502044516 | 43 | 335 | 0.0 | 0.0 | 0.00 | 0.00 | 0.00 | 81 | 1025.4 |
| 20260502044016 | 42 | 336 | 0.0 | 0.0 | 0.00 | 0.00 | 0.00 | 82 | 1025.4 |
| 20260502043516 | 41 | 336 | 0.0 | 0.0 | 0.00 | 0.00 | 0.00 | 83 | 1025.4 |
| 20260502043016 | 40 | 336 | 0.0 | 0.0 | 0.00 | 0.00 | 0.00 | 85 | 1025.4 |
| 20260502042516 | 40 | 336 | 0.0 | 0.0 | 0.00 | 0.00 | 0.00 | 94 | 1025.4 |
| 20260502042016 | 38 | 336 | 0.0 | 0.0 | 0.00 | 0.00 | 0.00 | 97 | 1025.4 |
| 20260502041516 | 37 | 336 | 0.0 | 0.0 | 0.00 | 0.00 | 0.00 | 97 | 1025.4 |
| 20260502041016 | 36 | 335 | 0.0 | 0.0 | 0.00 | 0.00 | 0.00 | 97 | 1025.4 |
| 20260502040516 | 35 | 336 | 0.0 | 0.0 | 0.00 | 0.00 | 0.00 | 98 | 1025.4 |
| 20260502040016 | 35 | 335 | 0.0 | 0.0 | 0.00 | 0.00 | 0.00 | 98 | 1025.4 |
| 20260502035516 | 34 | 336 | 0.0 | 0.0 | 0.00 | 0.00 | 0.00 | 98 | 1025.4 |
| 20260502035016 | 33 | 335 | 0.0 | 0.0 | 0.00 | 0.00 | 0.00 | 98 | 1025.4 |
| 20260502034516 | 33 | 335 | 0.0 | 0.0 | 0.00 | 0.00 | 0.00 | 98 | 1025.4 |
| 20260502034016 | 33 | 335 | 0.0 | 0.0 | 0.00 | 0.00 | 0.00 | 98 | 1025.4 |
| 20260502033516 | 33 | 335 | 0.0 | 0.0 | 0.00 | 0.00 | 0.00 | 98 | 1025.4 |
| 20260502033016 | 33 | 335 | 0.0 | 0.0 | 0.00 | 0.00 | 0.00 | 98 | 1025.4 |
| 20260502032516 | 33 | 335 | 0.0 | 0.0 | 0.00 | 0.00 | 0.00 | 98 | 1025.4 |
| 20260502032016 | 33 | 336 | 0.0 | 0.0 | 0.00 | 0.00 | 0.00 | 98 | 1025.4 |
| 20260502031516 | 33 | 336 | 0.0 | 0.0 | 0.00 | 0.00 | 0.00 | 97 | 1025.4 |
| 20260502031016 | 33 | 335 | 0.0 | 0.0 | 0.00 | 0.00 | 0.00 | 98 | 1025.4 |
| 20260502030516 | 33 | 335 | 0.0 | 0.0 | 0.00 | 0.00 | 0.00 | 98 | 1025.4 |
| 20260502030016 | 34 | 335 | 0.0 | 0.0 | 0.00 | 0.00 | 0.00 | 98 | 1025.4 |
| 20260502025516 | 33 | 341 | 0.0 | 0.0 | 0.00 | 0.00 | 0.00 | 98 | 1025.4 |
| 20260502025016 | 33 | 341 | 0.0 | 0.0 | 0.00 | 0.00 | 0.00 | 97 | 1025.4 |
| 20260502024516 | 34 | 341 | 0.0 | 0.0 | 0.00 | 0.00 | 0.00 | 98 | 1025.4 |
| 20260502024016 | 34 | 341 | 0.0 | 0.0 | 0.00 | 0.00 | 0.00 | 98 | 1025.4 |
| 20260502023516 | 34 | 341 | 0.0 | 0.0 | 0.00 | 0.00 | 0.00 | 97 | 1025.4 |
| 20260502023016 | 34 | 342 | 1.0 | 1.0 | 0.00 | 0.00 | 0.00 | 97 | 1025.4 |
| 20260502022516 | 33 | 339 | 0.0 | 0.0 | 0.00 | 0.00 | 0.00 | 97 | 1025.4 |
| 20260502022016 | 33 | 339 | 0.0 | 0.0 | 0.00 | 0.00 | 0.00 | 97 | 1025.4 |
| 20260502021516 | 34 | 339 | 0.0 | 0.0 | 0.00 | 0.00 | 0.00 | 97 | 1025.4 |
| 20260502021016 | 34 | 339 | 0.0 | 0.0 | 0.00 | 0.00 | 0.00 | 97 | 1025.4 |
| 20260502020516 | 34 | 339 | 0.0 | 0.0 | 0.00 | 0.00 | 0.00 | 97 | 1025.4 |
| 20260502020016 | 35 | 340 | 0.0 | 0.0 | 0.00 | 0.00 | 0.00 | 97 | 1025.4 |
| 20260502015516 | 35 | 341 | 0.0 | 0.0 | 0.00 | 0.00 | 0.00 | 97 | 1025.4 |
| 20260502015016 | 35 | 345 | 0.0 | 0.0 | 0.00 | 0.00 | 0.00 | 97 | 1025.4 |
| 20260502014516 | 35 | 342 | 0.0 | 0.0 | 0.00 | 0.00 | 0.00 | 97 | 1025.4 |
| 20260502014016 | 35 | 331 | 0.0 | 0.0 | 0.00 | 0.00 | 0.00 | 97 | 1025.4 |
| 20260502013516 | 35 | 331 | 0.0 | 0.0 | 0.00 | 0.00 | 0.00 | 97 | 1025.4 |
| 20260502013016 | 35 | 340 | 0.0 | 0.0 | 0.00 | 0.00 | 0.00 | 97 | 1025.4 |
| 20260502012516 | 35 | 339 | 0.0 | 0.0 | 0.00 | 0.00 | 0.00 | 97 | 1025.4 |
| 20260502012016 | 35 | 338 | 1.0 | 1.0 | 0.00 | 0.00 | 0.00 | 97 | 1025.4 |
| 20260502011516 | 35 | 348 | 1.0 | 1.0 | 0.00 | 0.00 | 0.00 | 97 | 1025.4 |
| 20260502011016 | 35 | 348 | 0.0 | 0.0 | 0.00 | 0.00 | 0.00 | 97 | 1025.4 |
| 20260502010516 | 35 | 341 | 0.0 | 0.0 | 0.00 | 0.00 | 0.00 | 97 | 1025.4 |
| 20260502010016 | 35 | 335 | 0.0 | 0.0 | 0.00 | 0.00 | 0.00 | 97 | 1025.4 |
| 20260502005516 | 35 | 335 | 0.0 | 0.0 | 0.00 | 0.00 | 0.00 | 97 | 1025.4 |
| 20260502005016 | 36 | 336 | 0.0 | 0.0 | 0.00 | 0.00 | 0.00 | 97 | 1025.4 |
| 20260502004516 | 36 | 336 | 0.0 | 0.0 | 0.00 | 0.00 | 0.00 | 97 | 1025.4 |
| 20260502004016 | 36 | 336 | 0.0 | 0.0 | 0.00 | 0.00 | 0.00 | 97 | 1025.4 |
| 20260502003516 | 37 | 335 | 0.0 | 0.0 | 0.00 | 0.00 | 0.00 | 97 | 1025.4 |
| 20260502003016 | 36 | 334 | 0.0 | 0.0 | 0.00 | 0.00 | 0.00 | 97 | 1025.4 |
| 20260502002516 | 36 | 334 | 0.0 | 0.0 | 0.00 | 0.00 | 0.00 | 96 | 1025.4 |
| 20260502002016 | 37 | 334 | 0.0 | 0.0 | 0.00 | 0.00 | 0.00 | 96 | 1025.4 |
| 20260502001516 | 37 | 334 | 0.0 | 0.0 | 0.00 | 0.00 | 0.00 | 96 | 1025.4 |
| 20260502001016 | 37 | 335 | 0.0 | 0.0 | 0.00 | 0.00 | 0.00 | 96 | 1025.4 |
| 20260502000516 | 37 | 333 | 0.0 | 0.0 | 0.00 | 0.00 | 0.00 | 96 | 1025.4 |
| 20260502000016 | 37 | 332 | 0.0 | 0.0 | 0.00 | 0.00 | 0.00 | 96 | 1025.4 |
| 20260501235516 | 38 | 332 | 0.0 | 0.0 | 0.00 | 0.00 | 0.00 | 96 | 1025.4 |
| 20260501235016 | 38 | 335 | 0.0 | 0.0 | 0.00 | 0.00 | 0.00 | 96 | 1025.4 |
| 20260501234516 | 38 | 339 | 0.0 | 0.0 | 0.00 | 0.00 | 0.00 | 96 | 1025.4 |
| 20260501234016 | 38 | 339 | 0.0 | 0.0 | 0.00 | 0.00 | 0.00 | 96 | 1025.4 |
| 20260501233516 | 38 | 339 | 0.0 | 0.0 | 0.00 | 0.00 | 0.00 | 96 | 1025.4 |
| 20260501233016 | 38 | 337 | 0.0 | 1.0 | 0.00 | 0.00 | 0.00 | 96 | 1025.4 |
| 20260501232516 | 38 | 336 | 0.0 | 0.0 | 0.00 | 0.00 | 0.00 | 95 | 1025.4 |
| 20260501232016 | 38 | 336 | 0.0 | 0.0 | 0.00 | 0.00 | 0.00 | 95 | 1025.4 |
| 20260501231516 | 38 | 336 | 0.0 | 0.0 | 0.00 | 0.00 | 0.00 | 94 | 1025.4 |
| 20260501231016 | 39 | 336 | 0.0 | 0.0 | 0.00 | 0.00 | 0.00 | 95 | 1025.4 |
| 20260501230516 | 39 | 336 | 0.0 | 0.0 | 0.00 | 0.00 | 0.00 | 95 | 1025.4 |
| 20260501230016 | 39 | 336 | 0.0 | 0.0 | 0.00 | 0.00 | 0.00 | 93 | 1025.4 |
| 20260501225516 | 39 | 336 | 0.0 | 0.0 | 0.00 | 0.00 | 0.00 | 93 | 1025.4 |
| 20260501225016 | 39 | 336 | 0.0 | 0.0 | 0.00 | 0.00 | 0.00 | 95 | 1025.4 |
| 20260501224516 | 40 | 336 | 0.0 | 0.0 | 0.00 | 0.00 | 0.00 | 95 | 1025.4 |
| 20260501224016 | 40 | 336 | 0.0 | 0.0 | 0.00 | 0.00 | 0.00 | 95 | 1025.4 |
| 20260501223516 | 40 | 336 | 0.0 | 0.0 | 0.00 | 0.00 | 0.00 | 95 | 1025.4 |
| 20260501223016 | 40 | 336 | 0.0 | 0.0 | 0.00 | 0.00 | 0.00 | 94 | 1025.4 |
| 20260501222516 | 40 | 336 | 0.0 | 0.0 | 0.00 | 0.00 | 0.00 | 94 | 1025.4 |
| 20260501222016 | 40 | 336 | 0.0 | 0.0 | 0.00 | 0.00 | 0.00 | 94 | 1025.4 |